Weather History for KROA - August, 2013

Change the Weather History Date:

Saturday, August 17, 2013

  Actual Average Record
Temperature  
Mean Temperature 64 °F 76 °F  
Max Temperature 72 °F 86 °F 102 °F (1988)
Min Temperature 56 °F 65 °F 48 °F (1979)
Degree Days  
Heating Degree Days 1 0  
Month to date heating degree days 1 0  
Since 1 June heating degree days 2 11  
Since 1 July heating degree days 1 0  
Cooling Degree Days 0 11  
Month to date cooling degree days 161 189  
Year to date cooling degree days 959 912  
Since 1 June cooling degree days 809 796  
Growing Degree Days 14 (Base 50)    
Moisture  
Dew Point 58 °F    
Average Humidity 73    
Maximum Humidity 93    
Minimum Humidity 53    
Precipitation  
Precipitation 0.29 in 0.11 in 2.19 in (1985)
Month to date precipitation 1.22 1.92  
Year to date precipitation 40.98 26.49  
Snow  
Snow 0.00 in - - ()
Month to date snowfall 0.0  
Since 1 June snowfall 0.0  
Since 1 July snowfall 0.0  
Snow Depth 0.00 in    
Sea Level Pressure  
Sea Level Pressure 30.24 in    
Wind  
Wind Speed 3 mph (NE)    
Max Wind Speed 15 mph    
Max Gust Speed 20 mph    
Visibility 8 miles    
Events Rain    
T = Trace of Precipitation, MM = Missing Value Source: NWS Daily Summary

Daily Weather History Graph

Daily Weather History Graph

Search for Another Location

Airport or City:

Trip Planner

Search our weather history database for the weather conditions in past years. The results will help you decide how hot, cold, wet, or windy it might be!

Date:

Astronomy

Aug. 17, 2013 Rise Set
Actual Time 6:38 AM EDT 8:09 PM EDT
Civil Twilight 6:10 AM EDT 8:36 PM EDT
Nautical Twilight 5:37 AM EDT 9:09 PM EDT
Astronomical Twilight 5:02 AM EDT 9:44 PM EDT
Moon 5:21 PM EDT (8/17) 2:41 AM EDT (8/17)
Length of Visible Light 14h 26m
Length of Day
13h 31m
Waxing Gibbous, 84% of the Moon is Illuminated
Aug 17
Waxing Gibbous
Aug 20
Full
Aug 28
Last Quarter
Sep 5
New
Sep 12
First Quarter

Hourly Weather History & Observations

Time (EDT) Temp. Dew Point Humidity Pressure Visibility Wind Dir Wind Speed Gust Speed Precip Events Conditions
12:54 AM 60.1 °F 55.9 °F 86% 30.23 in 10.0 mi Calm Calm - N/A   Clear
1:54 AM 60.1 °F 57.0 °F 90% 30.22 in 10.0 mi Calm Calm - N/A   Clear
2:54 AM 59.0 °F 55.9 °F 90% 30.21 in 10.0 mi Calm Calm - N/A   Clear
3:54 AM 57.0 °F 55.0 °F 93% 30.22 in 10.0 mi Calm Calm - N/A   Clear
4:54 AM 57.0 °F 55.0 °F 93% 30.21 in 10.0 mi Calm Calm - N/A   Clear
5:54 AM 57.0 °F 54.0 °F 89% 30.22 in 10.0 mi Calm Calm - N/A   Clear
6:54 AM 55.9 °F 54.0 °F 93% 30.25 in 10.0 mi Calm Calm - N/A   Clear
7:54 AM 57.9 °F 55.0 °F 90% 30.25 in 10.0 mi Calm Calm - N/A   Partly Cloudy
8:54 AM 63.0 °F 57.0 °F 81% 30.25 in 10.0 mi North 5.8 mph - N/A   Scattered Clouds
9:54 AM 64.0 °F 57.0 °F 78% 30.26 in 10.0 mi North 8.1 mph - N/A   Mostly Cloudy
10:54 AM 69.1 °F 57.0 °F 65% 30.26 in 10.0 mi NNE 6.9 mph - N/A   Mostly Cloudy
11:54 AM 70.0 °F 57.0 °F 63% 30.25 in 10.0 mi Calm Calm - N/A   Mostly Cloudy
12:54 PM 70.0 °F 57.0 °F 63% 30.25 in 10.0 mi Calm Calm - N/A   Overcast
1:54 PM 71.1 °F 55.0 °F 57% 30.25 in 10.0 mi SE 10.4 mph - N/A   Overcast
2:54 PM 71.1 °F 53.1 °F 53% 30.23 in 10.0 mi East 10.4 mph - N/A   Overcast
3:54 PM 70.0 °F 55.0 °F 59% 30.22 in 10.0 mi ESE 5.8 mph - N/A   Overcast
4:15 PM 69.8 °F 55.4 °F 60% 30.24 in 10.0 mi ESE 8.1 mph - N/A   Overcast
4:54 PM 64.9 °F 59.0 °F 81% 30.24 in 5.0 mi Calm Calm - N/A   Overcast
5:13 PM 62.6 °F 60.8 °F 94% 30.25 in 2.5 mi SE 3.5 mph - 0.00 in Rain Light Rain
5:28 PM 62.6 °F 60.8 °F 94% 30.25 in 2.0 mi SSE 3.5 mph - 0.01 in Rain Light Rain
5:50 PM 62.6 °F 60.8 °F 94% 30.25 in 3.0 mi Calm Calm - 0.01 in   Overcast
5:54 PM 63.0 °F 60.1 °F 90% 30.23 in 3.0 mi North 4.6 mph - 0.01 in   Overcast
6:48 PM 62.6 °F 60.8 °F 94% 30.24 in 2.5 mi Calm Calm - 0.02 in Rain Light Rain
6:54 PM 63.0 °F 61.0 °F 93% 30.23 in 2.0 mi Calm Calm - 0.02 in Rain Light Rain
7:03 PM 62.6 °F 60.8 °F 94% 30.24 in 3.0 mi Calm Calm - 0.01 in Rain Light Rain
7:54 PM 63.0 °F 60.1 °F 90% 30.22 in 10.0 mi North 3.5 mph - 0.02 in Rain Light Rain
8:05 PM 62.6 °F 60.8 °F 94% 30.24 in 10.0 mi NNW 3.5 mph - 0.01 in Rain Light Rain
8:54 PM 64.0 °F 61.0 °F 90% 30.22 in 10.0 mi NNE 4.6 mph - 0.03 in Rain Light Rain
9:54 PM 64.0 °F 61.0 °F 90% 30.24 in 10.0 mi NNE 4.6 mph - 0.02 in   Overcast
10:54 PM 64.0 °F 61.0 °F 90% 30.23 in 8.0 mi NNE 5.8 mph - 0.06 in Rain Light Rain
11:54 PM 64.0 °F 61.0 °F 90% 30.23 in 10.0 mi NNE 3.5 mph - 0.07 in Rain Light Rain